CW5229 Weather Reports


Display with metric or nautical units.
time (UTC)temp
F
wind
direction
speed
MPH
gust
MPH
rain 1hr
in
rain 24hr
in
rain mn
in
humidity
%
barometer
mb
20260904054556 78 132 0.0 0.0 0.00 0.00 0.00 89 1011.4
20260904053054 78 132 0.0 0.0 0.00 0.00 0.00 89 1011.2
20260904051553 78 135 0.0 0.0 0.00 0.00 0.00 88 1011.2
20260904050050 79 39 0.0 0.0 0.00 0.00 0.00 88 1011.2
20260904044551 79 155 0.0 0.0 0.00 0.00 0.00 87 1011.1
20260904043058 79 210 0.0 2.0 0.00 0.00 0.00 87 1011.2
20260904041544 79 176 0.0 1.0 0.00 0.00 0.00 86 1011.3
20260904040044 80 115 0.0 1.0 0.00 0.00 0.00 86 1011.3
20260904034549 80 120 0.0 0.0 0.00 0.00 0.00 86 1011.2
20260904033040 80 120 0.0 1.0 0.00 0.00 0.00 85 1011.3
20260904031530 81 120 0.0 2.0 0.00 0.00 0.00 84 1011.3
20260904030029 81 136 0.0 1.0 0.00 0.00 0.00 84 1011.4
20260904024530 81 69 0.0 1.0 0.00 0.00 0.00 83 1011.4
20260904023028 82 86 0.0 2.0 0.00 0.00 0.00 82 1011.3
20260904021533 82 122 0.0 2.0 0.00 0.00 0.00 82 1011.2
20260904020020 82 91 0.0 2.0 0.00 0.00 0.00 81 1010.9
20260904014520 83 108 0.0 2.0 0.00 0.00 0.00 81 1010.8
20260904013018 83 126 0.0 3.0 0.00 0.00 0.00 81 1010.6
20260904011521 83 103 0.0 2.0 0.00 0.00 0.00 81 1010.3
20260904010014 84 127 0.0 3.0 0.00 0.00 0.00 81 1010.0
20260904004517 84 160 0.0 1.0 0.00 0.00 0.00 80 1010.0
20260904003012 84 110 0.0 0.0 0.00 0.00 0.00 77 1010.0
20260904001508 84 110 0.0 1.0 0.00 0.00 0.00 77 1010.1
20260904000014 85 110 0.0 1.0 0.00 0.00 0.00 75 1010.2
20260903234510 85 106 0.0 3.0 0.00 0.00 0.00 75 1010.2
20260903233004 84 67 0.0 3.0 0.00 0.00 0.00 76 1010.1
20260903231534 85 120 0.0 2.0 0.00 0.00 0.00 74 1010.1
20260903230035 85 98 0.0 4.0 0.00 0.00 0.00 73 1010.3
20260903224502 86 64 1.0 3.0 0.00 0.00 0.00 72 1010.5
20260903223003 89 108 1.0 6.0 0.00 0.00 0.00 68 1010.4
20260903221559 91 270 0.0 2.0 0.00 0.00 0.00 66 1010.3
20260903220111 92 160 0.0 3.0 0.00 0.00 0.00 65 1010.2
20260903214602 91 132 1.0 3.0 0.00 0.00 0.00 64 1010.3
20260903213058 91 86 1.0 3.0 0.00 0.00 0.00 63 1010.3
20260903211553 91 137 0.0 2.0 0.00 0.00 0.00 63 1010.3
20260903210052 91 111 1.0 4.0 0.00 0.00 0.00 64 1010.5
20260903204550 89 115 2.0 7.0 0.00 0.00 0.00 65 1010.6
20260903203047 88 46 1.0 5.0 0.00 0.00 0.00 65 1010.8
20260903201517 87 57 1.0 4.0 0.00 0.00 0.00 65 1011.0
20260903200019 87 46 2.0 6.0 0.00 0.00 0.00 66 1011.0
20260903194511 86 69 4.0 7.0 0.00 0.00 0.00 67 1011.4
20260903193007 85 124 3.0 9.0 0.00 0.00 0.00 67 1011.5
20260903191516 85 73 4.0 10.0 0.00 0.00 0.00 68 1011.8
20260903190005 85 77 4.0 8.0 0.00 0.00 0.00 69 1011.9
20260903184533 85 69 3.0 10.0 0.00 0.00 0.00 70 1012.0
20260903183031 85 86 5.0 10.0 0.00 0.00 0.00 71 1012.1
20260903181538 86 69 5.0 11.0 0.00 0.00 0.00 71 1012.0
20260903180021 89 79 5.0 11.0 0.00 0.00 0.00 69 1012.1
20260903174520 89 54 3.0 9.0 0.00 0.00 0.00 67 1011.9
20260903173016 90 96 6.0 11.0 0.00 0.00 0.00 64 1012.1
20260903171617 93 326 1.0 5.0 0.00 0.00 0.00 62 1012.0
20260903170053 96 323 2.0 5.0 0.00 0.00 0.00 56 1011.6
20260903164539 96 322 0.0 3.0 0.00 0.00 0.00 59 1011.4
20260903163043 95 237 0.0 5.0 0.00 0.00 0.00 60 1011.2
20260903161535 94 221 1.0 4.0 0.00 0.00 0.00 61 1011.2
20260903160035 93 159 0.0 3.0 0.00 0.00 0.00 62 1011.2
20260903154534 93 297 1.0 4.0 0.00 0.00 0.00 61 1011.4
20260903153004 92 167 1.0 6.0 0.00 0.00 0.00 64 1011.4
20260903151503 92 264 0.0 5.0 0.00 0.00 0.00 63 1011.6
20260903150000 91 136 0.0 2.0 0.00 0.00 0.00 65 1011.5
20260903144603 90 306 1.0 6.0 0.00 0.00 0.00 64 1011.5
20260903143102 89 274 1.0 8.0 0.00 0.00 0.00 65 1011.5
20260903141603 89 165 0.0 3.0 0.00 0.00 0.00 66 1011.5
20260903140029 87 158 0.0 3.0 0.00 0.00 0.00 69 1011.5
20260903134528 86 251 0.0 3.0 0.00 0.00 0.00 72 1011.5
20260903133027 84 151 1.0 5.0 0.00 0.00 0.00 73 1011.6
20260903131524 83 259 1.0 5.0 0.00 0.00 0.00 75 1011.7
20260903130023 82 209 0.0 5.0 0.00 0.00 0.00 76 1011.7
20260903124525 82 219 0.0 0.0 0.00 0.00 0.00 78 1011.9
20260903123028 80 159 0.0 0.0 0.00 0.00 0.00 80 1011.9
20260903121519 78 165 0.0 0.0 0.00 0.00 0.00 83 1011.9
20260903120019 0 0.0 0.0 0.00 0.00 0.00 1011.9
20260903114520 0 0.0 0.0 0.00 0.00 0.00 1011.8
20260903113016 0 0.0 0.0 0.00 0.00 0.00 1011.7
20260903111515 0 0.0 0.0 0.00 0.00 0.00 1011.7
20260903110013 0 0.0 0.0 0.00 0.00 0.00 1011.5
20260903104510 77 255 0.0 2.0 0.00 0.00 0.00 83 1011.4
20260903103007 77 186 0.0 2.0 0.00 0.00 0.00 83 1011.5
20260903101506 77 162 0.0 3.0 0.00 0.00 0.00 83 1011.3
20260903100016 77 226 0.0 2.0 0.00 0.00 0.00 84 1011.4
20260903094505 77 262 0.0 2.0 0.00 0.00 0.00 84 1011.4
20260903093127 77 233 0.0 1.0 0.00 0.00 0.00 84 1011.3
20260903091600 77 184 0.0 1.0 0.00 0.00 0.00 83 1011.2
20260903084559 78 149 0.0 1.0 0.00 0.00 0.00 83 1011.2
20260903083028 77 201 0.0 0.0 0.00 0.00 0.00 84 1011.2
20260903081535 77 223 0.0 0.0 0.00 0.00 0.00 86 1011.2
20260903080024 76 212 0.0 0.0 0.00 0.00 0.00 87 1011.2
20260903074527 76 212 0.0 0.0 0.00 0.00 0.00 88 1011.2
20260903073024 76 212 0.0 0.0 0.00 0.00 0.00 89 1011.1
20260903071523 76 212 0.0 0.0 0.00 0.00 0.00 89 1011.1
20260903070034 77 212 0.0 0.0 0.00 0.00 0.00 88 1011.1
20260903064516 78 212 0.0 0.0 0.00 0.00 0.00 88 1011.1
20260903063014 78 213 0.0 1.0 0.00 0.00 0.00 88 1011.1
20260903061514 78 195 0.0 0.0 0.00 0.00 0.00 87 1011.1
20260903060015 78 163 0.0 0.0 0.00 0.00 0.00 87 1011.2